FENGYUN 1C DEB, 40689

Orbit data source: Space-Track

FENGYUN 1C DEB, 40689 is space debris in SSO originally from a launch on Mon, 10 May 1999 UTC launched from the Taiyaun Space Center, China (TSC). Fengyun 1C debris stems from the Chinese weather satellite Fengyun-1C, which was intentionally destroyed by a Chinese anti-satellite missile in 2007. This event dramatically increased the amount of space debris, with thousands of trackable fragments posing hazards to satellites and human spaceflight. The Fengyun 1C debris cloud has become a focal point in discussions about space sustainability and the need for international regulations to prevent the creation of new debris.

Loading next visibility...
Identifier
40689, 1999-025EWV
Orbit
SSO
Country
Flag of CNCN / PRC
Related business
Manufacturer
Unknown
Mission
Spacecraft
Bus & Motor
Unknown
Mass
Unknown
Launch date (UTC)
1999-05-10 (27 years ago)
Launch vehicle
Unknown
Launch site
Taiyaun Space Center, China (TSC)
Object type
Payload
Rocket body
Debris
Shape & HBR
Unknown shape, 0.1 m
Radar Cross Section
Small (<0.1 m²)

Expand to show TLE details & history
Last TLE update: 2 days ago

TLE from 2 days ago
0 FENGYUN 1C DEB
1 40689U 99025EWV 25337.04642133  .00001611  00000-0  14793-2 0  9990
2 40689  99.1251 255.5784 0309726 126.5569 236.4512 13.64656571547512
Epoch: 2025-12-03T01:06Z
TLE epoch observation values (Epoch: 2025-12-03T01:06:50.802Z)
Latitude
-0.00003°
Longitude
166.74389°
Altitude
1,153.089 km
Speed
7.212 km/s
True Right ascension
17h 02m 18s
True Declination
0° 00' 00"
Sunlit
Object was in daylight at epoch
Visualization orbit readout
Latitude
Unknown
Longitude
Unknown
Altitude
Unknown
Speed
Unknown
Apparent Right ascension
Unknown
Apparent Declination
Unknown
Sunlit
N/A
Visualization observer readout
Local Sidereal Time
05:52:57
Azimuth
Unknown
Elevation
Unknown
Doppler factor
Unknown
Orbital elements
Apogee altitude
1,245.084 km
Perigee altitude
787.048 km
Semi-major axis
7,394.203 km
Eccentricity
0.03097
Inclination
99.1251°
RAAN
255.5784°
Arg. of periapsis
126.5569°
True anomaly
233.55649°
Mean anomaly
236.4512°
Eccentric anomaly
234.99758°
Mean motion
3.41355 °/min
Orbital period
105.46 mins
BSTAR
0.0014793
Loading maneuver chart data...
Computing Atmospheric mass density...

Documentation

Showing up to 5 results
|